Temperature
16 16 17 17 14 13 14 15 17 18 18 19 19 18 17 17 17 17 16 16 16 16 16 16 16 16 16 16 16 16 16 16 16 16 16 16 16 16 16 15 15 15 15 15 15 15 15 15 15
16 16 17 16 13 13 14 15 16 17 18 18 18 18 16 16 16 16 15 15 16 16 16 16 16 16 16 16 16 16 16 16 16 16 15 15 15 15 15 15 15 15 15 15 15 15 15 15 14
15 16 16 12 12 13 15 16 16 17 18 18 17 16 16 15 15 15 16 16 16 16 16 15 16 16 16 16 16 16 16 15 15 15 15 15 15 15 15 15 15 15 15 15 15 15 15 14 14
15 16 15 12 13 14 15 15 16 16 17 17 16 15 15 15 15 15 16 15 16 16 15 15 15 15 15 16 15 15 15 15 15 15 15 15 15 15 15 15 15 15 15 14 14 14 14 14 14
15 15 12 12 13 14 14 16 16 15 16 16 15 14 14 15 15 15 15 15 16 15 15 15 15 15 15 15 15 15 15 15 15 15 15 15 15 15 15 15 15 14 14 14 14 14 14 14 14
14 12 11 11 13 14 14 16 16 15 15 15 15 13 14 14 14 15 15 15 15 15 15 15 15 15 15 15 15 15 15 15 15 15 15 15 15 15 14 14 14 14 14 14 14 14 14 14 14
13 10 11 12 13 13 14 15 15 14 14 14 15 13 13 14 14 14 15 15 15 15 15 15 15 15 15 15 15 15 14 14 14 14 14 14 14 14 14 14 14 14 14 14 14 13 13 13 13
13 10 12 12 13 13 14 14 14 14 14 14 15 13 13 13 14 14 14 14 14 14 14 14 14 14 14 14 14 14 14 14 14 14 14 14 14 14 14 14 14 14 14 14 13 13 13 13 13
13 10 11 12 12 13 13 13 13 13 13 13 13 13 14 13 13 14 14 14 14 14 14 14 14 14 14 14 14 14 14 14 14 14 14 14 14 14 14 14 13 13 13 13 13 13 13 13 13
12 9 11 12 12 12 12 12 12 13 12 12 13 13 13 13 13 13 14 13 13 13 13 13 14 14 14 13 14 14 14 14 14 13 13 13 13 13 13 13 13 13 13 13 13 13 12 12 12
11 10 11 11 12 12 12 12 12 12 11 12 12 12 12 12 13 13 13 13 13 13 13 13 13 13 13 13 13 13 13 13 13 13 13 13 13 13 13 13 13 13 12 12 12 12 12 12 12
10 10 11 11 12 12 11 11 11 11 12 12 12 12 12 12 12 12 12 13 13 13 13 13 13 13 13 13 13 13 13 13 13 13 13 13 13 13 12 12 12 12 12 12 12 12 12 12 12
10 10 10 11 11 11 11 11 11 11 12 12 12 12 12 12 12 12 12 12 12 12 13 13 13 13 13 13 13 13 13 13 13 12 12 12 12 12 12 12 12 12 12 12 12 12 12 12 11
10 10 10 10 11 10 10 10 10 11 12 12 11 11 11 11 11 11 11 12 12 12 12 12 13 13 13 13 13 12 12 12 12 12 12 12 12 12 12 12 12 12 12 12 11 11 11 11 11
10 9 9 10 10 10 10 9 9 11 11 11 11 11 11 11 11 11 11 11 11 12 12 12 12 12 12 12 12 12 12 12 12 12 12 12 12 12 12 12 12 12 11 11 11 11 11 11 11
9 8 8 9 9 10 10 9 9 11 10 10 10 10 10 10 10 10 10 11 11 11 11 11 12 12 12 12 12 12 12 12 12 12 11 12 11 11 11 11 11 11 11 11 11 11 11 11 11
8 7 8 9 9 9 9 8 9 10 10 9 9 9 9 9 10 10 10 10 10 11 11 11 11 11 11 11 11 11 11 11 11 11 11 11 11 11 11 11 11 11 11 11 10 10 10 10 10
7 7 8 8 9 8 8 8 8 9 9 8 9 9 9 9 9 9 9 10 10 10 10 10 11 11 11 11 11 11 11 11 11 11 11 11 11 11 11 11 11 11 10 10 10 10 10 10 10
8 7 8 8 8 8 7 7 8 8 8 7 8 8 8 8 9 9 9 9 9 10 10 10 10 10 10 10 10 10 10 10 11 10 10 10 10 10 10 10 10 10 10 10 10 10 10 9 9
8 7 7 8 8 8 7 7 7 7 7 8 7 8 8 8 8 8 9 9 9 9 9 9 9 10 10 10 10 10 10 10 10 10 10 10 10 10 10 10 10 10 10 9 9 9 9 9 9
7 7 7 7 7 8 7 7 7 7 7 7 8 8 8 8 8 8 8 8 9 9 9 9 9 9 9 9 9 9 9 9 9 9 9 9 9 9 9 9 9 9 9 9 9 9 9 9 9
7 7 7 7 6 5 7 6 6 6 7 6 7 7 7 7 7 8 8 8 8 8 8 8 8 9 9 9 9 9 9 9 9 9 9 9 9 8 8 9 9 9 9 9 9 8 8 8 8
7 7 7 7 6 5 6 5 6 6 6 6 6 6 7 7 7 7 8 8 8 8 8 8 8 8 8 8 8 8 8 8 8 8 8 8 8 8 8 8 8 8 8 8 8 8 8 7 7
7 6 6 5 5 5 5 5 6 5 6 6 6 6 6 6 7 7 7 7 7 7 7 8 8 8 7 7 7 7 7 7 7 7 7 7 7 7 7 7 7 7 7 7 7 7 7 7 7
6 5 5 5 4 5 6 5 6 6 5 5 5 5 6 6 6 6 6 6 7 7 7 7 7 7 7 7 7 7 6 6 6 6 7 7 7 7 7 7 7 7 7 7 7 7 7 7 6
5 5 5 5 5 5 5 5 5 5 5 6 6 6 5 6 6 6 6 6 6 6 6 7 6 6 6 6 6 6 6 6 6 6 6 6 6 6 6 6 6 6 6 6 6 6 6 6 6
5 4 5 4 4 4 5 5 5 5 5 4 5 5 5 5 5 5 5 5 6 6 6 6 6 6 6 6 6 6 5 5 5 5 5 5 5 5 6 6 6 6 6 6 6 6 6 6 6
5 5 4 4 5 5 5 5 5 5 4 4 3 4 4 5 5 5 5 5 5 5 5 5 5 5 5 5 5 5 5 5 5 5 4 5 5 5 5 5 5 5 5 5 5 5 5 5 5
4 4 4 3 3 4 5 5 5 4 4 3 3 4 4 4 4 4 4 4 4 4 4 5 5 5 5 5 5 4 4 4 4 4 4 4 4 4 4 4 4 4 5 5 5 5 4 4 4
4 4 3 4 3 3 3 5 5 3 3 3 3 4 4 4 4 4 4 4 4 4 4 4 4 4 4 4 4 4 4 4 3 3 3 3 3 4 4 4 4 4 4 4 4 4 4 4 4
Wind_Speed
12 10 2 4 5 3 3 4 3 1 1 1 1 5 7 5 3 4 2 5 8 9 10 12 13 13 13 13 13 12 12 13 13 12 13 13 13 13 13 13 13 13 13 13 13 13 14 14 14
8 4 4 4 4 2 4 4 3 3 3 1 3 4 6 4 3 5 3 5 9 9 10 11 13 13 13 13 12 12 13 13 13 12 12 12 12 12 12 12 12 12 12 12 12 12 12 12 12
6 2 4 4 4 6 5 3 3 1 2 2 3 4 4 3 2 3 4 8 9 9 9 11 13 13 13 13 12 12 13 13 12 12 12 12 12 12 12 12 12 11 12 11 12 12 11 12 12
3 4 4 3 4 5 4 2 1 0 3 4 4 4 3 2 0 2 7 10 10 8 9 12 13 13 13 13 12 12 12 12 12 12 11 11 11 12 12 11 11 11 11 11 11 11 11 11 11
4 4 3 1 4 3 3 2 1 1 1 3 4 4 2 4 3 6 7 9 10 8 9 11 13 13 13 12 12 12 11 12 11 11 11 11 11 11 11 10 10 10 10 10 10 10 10 10 10
4 4 3 3 4 3 2 3 0 1 1 2 4 4 1 2 5 5 6 6 8 9 9 10 12 13 13 12 12 12 11 11 11 11 10 11 11 11 10 10 9 9 9 10 9 9 8 8 9
4 4 4 4 3 3 3 2 1 0 1 0 2 4 1 1 3 5 6 6 6 8 8 8 10 11 11 11 11 11 11 11 10 10 9 10 10 10 10 9 9 8 9 9 8 8 8 8 8
4 4 2 2 3 3 2 2 1 2 1 1 2 5 3 2 1 4 7 7 6 6 6 6 7 8 8 9 10 10 10 10 9 9 9 9 9 9 9 9 8 8 8 8 7 7 7 7 7
3 3 3 4 4 3 2 1 2 2 2 2 2 1 2 3 4 6 6 5 5 5 4 4 5 6 7 8 8 9 9 9 9 8 9 9 8 8 7 7 7 7 7 7 7 6 6 6 5
4 3 5 3 2 2 1 1 0 2 2 2 3 4 3 5 6 6 4 4 3 3 3 3 4 5 6 6 6 6 7 7 7 7 7 7 7 6 6 6 6 6 6 6 5 5 5 5 4
3 4 2 2 1 1 1 2 1 2 2 3 3 2 2 3 3 5 4 3 3 3 3 3 3 4 5 4 5 4 5 5 6 6 6 6 6 5 5 5 5 5 5 4 4 3 3 3 3
2 1 2 2 2 1 1 1 1 2 5 4 5 6 4 3 3 4 4 3 2 3 2 2 3 3 4 5 4 4 4 4 4 5 6 6 4 3 3 3 4 4 4 3 3 2 2 3 3
2 2 2 2 2 1 1 2 2 4 5 2 3 4 5 4 3 3 4 3 3 2 2 2 3 3 3 4 3 4 3 3 4 4 5 5 4 3 3 3 4 3 3 3 2 1 2 2 2
2 1 2 3 3 2 1 4 2 6 2 3 3 4 4 4 4 3 3 2 2 3 2 1 3 3 3 3 3 3 3 4 4 4 4 5 5 4 3 3 3 3 3 3 3 2 2 1 1
1 1 4 3 2 2 1 4 5 6 2 3 3 3 3 3 3 4 4 4 3 3 2 2 3 3 3 3 3 3 3 4 3 4 5 5 5 5 4 3 2 2 4 4 3 2 1 1 0
2 1 2 4 2 2 3 7 6 4 3 3 4 3 2 2 3 3 3 3 3 2 2 2 2 3 3 2 2 2 2 3 3 4 4 5 5 6 4 3 2 2 3 2 2 2 1 1 1
1 2 4 4 2 2 3 6 6 3 3 4 4 4 3 2 2 2 2 3 3 3 2 2 1 3 2 2 2 2 2 2 2 3 3 3 5 6 5 3 2 3 2 1 1 1 2 2 1
4 3 4 5 3 1 4 7 7 4 3 5 5 4 4 4 5 3 2 2 3 3 2 2 1 2 2 2 2 2 2 2 2 2 2 2 3 4 4 3 3 3 2 1 1 1 1 1 1
3 3 5 5 3 2 6 9 9 6 5 6 6 6 5 6 5 3 3 2 2 2 2 2 1 2 2 2 2 2 1 1 1 1 2 2 2 3 3 2 2 2 2 2 2 1 1 0 0
4 4 5 5 3 3 5 9 8 7 6 7 7 7 7 5 3 3 3 2 3 3 3 2 2 2 2 2 1 2 1 1 1 1 2 2 1 2 2 2 2 2 2 2 2 1 1 1 1
5 6 5 5 5 3 4 7 6 4 4 3 4 5 5 6 5 4 4 3 3 3 3 3 3 2 1 1 2 2 2 1 1 1 0 2 1 1 1 2 2 2 2 3 2 2 2 2 2
6 5 4 3 2 4 1 5 6 4 4 4 4 3 4 4 3 3 4 4 4 3 3 2 3 2 2 2 3 3 2 1 1 1 1 1 1 1 0 0 1 2 2 2 2 2 1 3 2
5 2 3 3 2 4 2 3 7 3 5 7 6 5 4 4 4 4 4 4 4 3 3 3 3 2 2 3 3 3 1 1 1 1 0 1 1 1 1 0 1 2 2 2 2 2 2 2 3
2 2 2 2 2 4 5 5 7 3 5 5 5 5 4 4 3 2 1 2 1 2 3 3 3 2 2 2 2 2 2 1 1 1 1 1 1 1 2 1 1 2 2 3 3 3 3 3 3
3 4 3 3 1 6 3 4 7 5 3 3 4 5 4 3 3 1 1 1 1 1 2 3 3 2 1 2 2 2 2 2 3 3 2 2 2 2 2 2 2 3 3 3 3 4 4 4 4
3 5 5 4 4 5 2 5 6 4 3 1 2 3 3 2 2 2 3 3 2 2 2 2 2 2 1 1 1 1 2 2 2 3 3 3 3 3 3 3 3 3 3 3 3 3 4 3 4
3 3 4 3 1 3 5 5 5 3 4 3 3 3 2 2 1 1 1 1 2 2 2 2 3 2 2 1 1 1 1 1 2 3 3 3 3 3 3 3 4 4 4 3 3 3 4 4 4
3 4 3 3 2 4 5 5 4 4 3 2 1 0 1 1 0 0 0 1 0 1 0 1 1 2 2 2 2 1 2 2 2 2 3 4 4 4 4 4 4 4 4 3 3 4 4 4 4
3 2 2 3 3 3 4 6 4 5 4 3 3 2 2 2 2 2 1 1 0 0 0 0 0 1 1 2 2 2 3 2 3 3 4 5 5 5 5 5 4 4 4 4 4 5 4 5 4
4 4 5 4 4 4 3 7 2 2 3 3 3 3 2 3 2 2 1 1 0 0 0 1 1 1 2 2 2 2 3 3 3 4 4 5 5 5 5 5 5 5 5 5 5 5 5 5 6
Wind_Direction
333 333 19 54 61 62 230 250 242 302 308 274 77 102 110 103 121 143 131 133 132 141 144 142 137 133 128 122 117 114 112 110 106 103 103 102 100 99 99 97 96 95 93 92 93 93 93 93 92
334 345 48 63 105 162 254 251 237 241 218 145 55 71 80 73 73 106 114 136 133 137 141 142 139 135 130 125 121 117 116 113 111 108 107 105 103 101 100 98 96 97 96 96 96 96 96 96 94
334 31 79 86 142 184 215 233 215 253 339 47 53 46 85 88 82 135 154 140 127 124 134 139 137 135 132 128 125 122 119 118 115 112 109 106 105 104 101 98 96 97 99 99 99 99 99 97 94
39 45 59 95 205 221 208 243 223 74 18 36 85 56 50 24 114 140 136 133 128 123 131 140 138 136 134 131 128 125 123 122 119 114 111 108 107 106 103 100 100 101 102 102 100 102 103 100 96
58 79 82 199 236 251 252 275 277 89 44 36 85 87 42 351 56 100 118 130 132 130 132 142 139 136 135 133 132 129 127 125 123 119 115 111 110 110 106 104 105 107 108 107 104 104 105 103 98
59 75 118 210 236 262 287 306 6 52 72 54 89 102 124 3 72 98 109 122 132 136 135 143 142 139 137 135 133 131 128 125 124 123 119 117 115 114 112 109 109 110 111 110 108 107 106 105 101
108 112 173 198 219 248 273 322 79 76 58 312 123 115 153 9 68 93 98 102 115 124 128 131 137 139 141 139 135 132 129 125 123 123 122 118 116 117 116 113 112 113 115 115 113 111 109 106 102
128 118 171 205 206 235 290 5 33 38 276 330 83 134 178 230 75 88 91 91 98 106 116 121 128 132 134 137 137 134 129 126 124 120 120 120 120 120 120 119 116 116 120 121 117 114 112 107 101
91 95 195 206 196 235 327 23 355 8 66 24 35 140 184 140 100 86 85 82 90 100 104 110 116 123 128 133 136 136 132 129 125 122 121 119 118 119 122 124 123 120 124 124 120 117 112 106 98
91 162 215 224 194 215 332 8 293 49 26 15 16 15 74 103 108 109 110 110 111 119 121 111 117 120 120 133 133 133 135 133 128 128 127 123 122 123 124 130 128 125 126 125 124 122 118 109 101
135 183 212 275 272 257 317 317 310 139 235 217 195 176 111 98 113 129 136 147 157 152 125 127 126 124 123 118 127 126 131 131 133 138 137 132 127 125 125 126 131 128 123 116 119 113 112 118 120
141 247 226 271 315 312 277 281 326 214 228 222 186 165 156 150 164 166 160 171 159 142 132 127 113 118 123 123 126 125 126 128 133 147 149 141 131 125 134 135 138 136 131 118 120 119 123 124 139
199 244 280 300 338 319 323 284 263 264 252 200 158 151 163 173 185 190 174 176 164 152 157 146 123 116 123 120 130 130 133 141 143 149 155 153 147 144 145 146 147 148 143 138 136 144 144 139 151
196 223 288 289 291 286 254 287 271 260 226 153 156 171 180 184 183 183 175 171 176 160 161 147 135 124 124 130 134 139 144 150 144 144 151 150 148 147 148 145 148 161 166 168 163 167 168 176 170
87 0 321 289 247 233 158 295 240 243 180 174 196 198 194 208 182 182 191 181 191 179 158 144 149 117 130 140 142 137 150 152 147 155 156 153 144 140 141 140 153 175 177 169 156 145 137 161 194
48 46 290 280 213 211 160 255 259 247 171 207 220 217 209 221 207 201 194 176 181 166 162 150 139 125 133 143 141 124 143 148 150 155 154 153 148 143 139 133 155 162 157 157 158 167 181 214 226
30 233 250 280 236 189 185 248 264 251 198 225 229 222 217 235 239 227 204 170 167 169 173 149 121 137 137 137 131 114 97 116 125 131 141 152 151 150 147 139 148 150 134 141 188 190 193 205 227
217 222 246 253 259 219 234 253 271 271 236 234 235 226 218 219 228 218 199 172 165 163 174 159 124 137 137 128 120 107 83 76 79 83 112 135 145 148 140 128 136 140 155 170 179 202 220 203 215
193 215 254 261 273 261 246 258 268 262 252 247 241 229 225 229 229 200 186 160 144 144 159 174 147 151 138 135 154 153 171 179 112 61 73 121 128 138 127 131 138 145 175 186 179 175 180 229 121
234 250 269 288 297 265 264 269 270 255 239 236 229 229 223 223 209 190 186 163 155 165 173 181 179 158 153 152 164 167 173 183 174 53 41 62 92 135 145 142 165 174 178 169 174 154 162 204 140
240 223 244 265 316 307 304 295 269 273 248 244 232 226 215 199 191 188 182 180 175 175 182 185 185 157 143 118 106 90 79 47 33 25 351 355 18 94 122 158 160 174 177 191 197 186 173 202 216
251 233 228 247 289 278 221 284 278 257 268 253 241 226 208 185 172 168 179 178 184 196 184 184 171 155 136 124 117 120 129 194 240 234 239 306 8 359 12 146 167 178 182 199 209 202 212 189 214
233 245 234 236 220 289 247 236 284 260 258 253 235 216 204 183 173 168 178 183 188 191 183 174 151 139 135 130 136 145 167 225 257 215 234 274 308 329 323 333 195 199 202 208 217 224 224 209 214
218 38 26 45 80 273 232 201 278 249 250 262 229 209 198 187 175 164 166 166 181 186 169 155 146 137 135 134 141 150 169 202 271 274 245 272 290 309 312 297 250 237 226 221 221 217 221 227 228
107 98 39 358 325 253 220 206 256 268 260 235 209 201 189 179 168 154 149 181 173 166 170 160 150 149 138 139 163 174 189 202 221 238 230 254 268 284 272 283 256 252 252 240 224 219 225 226 229
190 157 164 202 235 278 262 236 260 299 313 264 166 151 137 154 173 187 185 176 185 174 175 166 160 166 167 177 207 201 202 207 230 245 241 238 245 245 249 265 266 269 269 264 243 239 237 235 234
158 194 173 155 248 275 268 277 298 337 2 34 70 94 130 163 165 191 190 176 182 186 191 181 176 185 196 202 221 225 228 223 231 248 251 242 251 258 256 255 256 266 264 257 248 248 250 249 243
162 154 121 150 198 261 283 271 262 275 276 314 2 23 278 295 270 259 256 264 264 213 225 157 163 184 209 214 223 249 249 247 246 248 265 259 256 257 252 254 253 257 259 258 249 253 251 249 254
159 164 156 165 181 195 270 272 231 220 220 209 231 243 225 229 237 246 261 260 254 93 29 48 203 232 242 236 234 234 244 249 247 257 266 263 257 252 245 246 248 250 252 253 252 251 248 248 256
190 188 162 177 234 209 223 265 279 229 223 207 226 247 248 239 235 228 234 268 315 319 287 280 269 258 258 253 251 251 252 254 256 258 264 264 258 256 250 247 247 250 252 250 246 252 253 245 248
Height
1508 1509 1510 1511 1515 1524 1525 1518 1511 1507 1507 1506 1505 1505 1507 1511 1515 1521 1518 1516 1518 1520 1522 1524 1525 1527 1528 1529 1529 1530 1531 1531 1532 1533 1533 1534 1534 1535 1535 1536 1536 1536 1536 1537 1537 1537 1537 1538 1538
1508 1509 1511 1511 1520 1530 1525 1515 1510 1507 1506 1505 1505 1506 1507 1511 1513 1514 1515 1516 1518 1520 1521 1523 1525 1527 1528 1529 1530 1530 1531 1532 1533 1533 1534 1534 1534 1535 1536 1536 1536 1537 1537 1537 1538 1538 1538 1538 1539
1508 1509 1511 1514 1522 1525 1519 1510 1508 1506 1506 1505 1506 1508 1510 1513 1513 1514 1515 1516 1518 1520 1522 1523 1525 1526 1528 1529 1529 1530 1531 1532 1533 1533 1534 1534 1535 1535 1536 1536 1536 1537 1537 1538 1538 1538 1539 1539 1539
1508 1510 1511 1518 1519 1515 1511 1508 1506 1506 1506 1506 1507 1510 1512 1515 1514 1514 1515 1516 1518 1520 1521 1523 1525 1526 1527 1528 1529 1530 1531 1532 1533 1533 1534 1535 1535 1535 1536 1536 1537 1537 1537 1538 1538 1539 1539 1539 1540
1508 1509 1516 1521 1517 1512 1508 1507 1506 1506 1507 1508 1508 1511 1513 1515 1515 1515 1516 1517 1518 1519 1521 1523 1524 1526 1527 1528 1529 1530 1531 1532 1533 1533 1534 1534 1535 1535 1536 1536 1537 1537 1537 1538 1538 1539 1539 1540 1540
1508 1509 1521 1523 1516 1511 1508 1507 1507 1507 1507 1508 1509 1511 1514 1515 1515 1515 1516 1517 1518 1519 1521 1522 1524 1526 1527 1528 1529 1530 1531 1532 1532 1533 1534 1534 1535 1535 1535 1536 1537 1537 1537 1538 1538 1539 1539 1540 1540
1509 1513 1518 1517 1515 1512 1509 1507 1508 1508 1508 1509 1509 1511 1514 1515 1515 1515 1516 1517 1518 1519 1521 1522 1523 1525 1526 1527 1528 1529 1531 1531 1532 1533 1533 1534 1534 1535 1535 1536 1536 1537 1537 1538 1538 1539 1539 1540 1540
1507 1512 1514 1515 1514 1511 1508 1508 1508 1509 1509 1509 1509 1510 1512 1514 1514 1515 1516 1517 1518 1519 1520 1521 1522 1524 1525 1527 1528 1529 1530 1531 1532 1532 1533 1533 1534 1534 1535 1535 1536 1536 1537 1537 1538 1538 1539 1539 1540
1507 1515 1516 1513 1512 1510 1507 1508 1508 1509 1508 1509 1509 1510 1510 1512 1513 1514 1516 1517 1518 1519 1519 1520 1521 1522 1524 1526 1527 1528 1529 1530 1531 1532 1532 1533 1533 1534 1534 1535 1535 1536 1536 1537 1537 1538 1538 1539 1539
1507 1515 1512 1509 1508 1508 1507 1507 1508 1508 1508 1508 1508 1509 1510 1511 1511 1512 1513 1514 1516 1517 1518 1519 1520 1521 1523 1524 1526 1527 1528 1529 1530 1531 1531 1532 1532 1533 1533 1534 1535 1535 1536 1536 1537 1537 1538 1538 1539
1507 1511 1509 1508 1507 1506 1507 1507 1507 1507 1509 1508 1507 1508 1508 1510 1510 1511 1512 1513 1513 1515 1516 1517 1519 1520 1521 1522 1524 1525 1526 1527 1528 1529 1530 1530 1531 1531 1532 1533 1533 1534 1535 1535 1536 1536 1537 1537 1538
1508 1508 1507 1507 1506 1506 1506 1506 1506 1506 1506 1506 1506 1506 1506 1508 1509 1509 1510 1511 1512 1513 1514 1516 1517 1518 1520 1521 1522 1523 1524 1525 1526 1527 1528 1529 1529 1530 1530 1531 1532 1532 1533 1534 1534 1535 1536 1536 1536
1507 1507 1507 1506 1506 1505 1505 1505 1505 1504 1504 1504 1504 1504 1505 1505 1507 1508 1508 1509 1509 1510 1512 1513 1515 1516 1517 1519 1520 1521 1523 1524 1525 1526 1526 1527 1528 1528 1529 1530 1530 1531 1532 1532 1533 1533 1534 1534 1535
1506 1506 1506 1506 1505 1505 1505 1504 1504 1501 1502 1501 1502 1502 1502 1503 1504 1505 1506 1507 1507 1508 1509 1510 1512 1514 1515 1517 1518 1519 1521 1522 1523 1524 1524 1525 1526 1526 1527 1527 1528 1529 1530 1530 1531 1532 1532 1532 1533
1506 1507 1507 1505 1504 1503 1504 1505 1502 1499 1500 1500 1500 1500 1500 1501 1502 1502 1503 1504 1505 1505 1507 1507 1509 1511 1513 1514 1516 1517 1519 1519 1520 1521 1522 1523 1523 1524 1524 1525 1526 1527 1528 1528 1529 1530 1530 1530 1531
1507 1510 1511 1505 1503 1502 1506 1506 1499 1498 1498 1497 1497 1498 1498 1499 1499 1500 1500 1501 1502 1503 1504 1505 1507 1509 1510 1511 1513 1515 1516 1517 1518 1519 1520 1520 1521 1521 1522 1523 1524 1525 1525 1526 1527 1527 1527 1528 1528
1511 1514 1511 1506 1502 1502 1504 1503 1497 1496 1496 1495 1495 1495 1495 1496 1496 1497 1498 1499 1500 1501 1502 1503 1505 1506 1508 1509 1510 1512 1513 1514 1515 1516 1517 1517 1518 1519 1519 1520 1521 1522 1523 1523 1524 1524 1525 1525 1525
1513 1513 1510 1506 1502 1502 1502 1500 1496 1495 1494 1493 1493 1493 1493 1493 1493 1494 1495 1496 1497 1499 1500 1501 1502 1504 1506 1506 1508 1509 1510 1511 1512 1513 1514 1515 1515 1516 1517 1517 1518 1519 1520 1520 1521 1521 1522 1522 1522
1507 1508 1508 1504 1501 1502 1501 1498 1494 1492 1492 1491 1490 1490 1490 1490 1490 1491 1492 1493 1494 1496 1498 1499 1500 1501 1503 1504 1505 1505 1506 1508 1509 1510 1511 1512 1512 1513 1513 1514 1515 1516 1516 1517 1517 1518 1518 1519 1519
1506 1508 1507 1503 1500 1501 1500 1496 1491 1489 1488 1487 1486 1486 1486 1487 1487 1488 1490 1490 1492 1493 1495 1496 1497 1499 1500 1501 1502 1503 1504 1504 1506 1507 1508 1508 1509 1510 1510 1511 1511 1512 1512 1513 1514 1514 1514 1515 1515
1505 1506 1506 1505 1502 1499 1500 1495 1490 1486 1485 1484 1483 1483 1483 1483 1484 1485 1487 1488 1489 1491 1492 1493 1495 1496 1497 1498 1500 1501 1501 1502 1502 1503 1504 1505 1506 1506 1507 1507 1508 1508 1508 1509 1509 1510 1510 1510 1511
1504 1501 1501 1502 1506 1507 1503 1504 1490 1486 1483 1482 1481 1481 1480 1481 1482 1482 1484 1485 1486 1487 1489 1491 1492 1493 1494 1495 1496 1497 1497 1497 1498 1499 1500 1501 1502 1502 1503 1503 1503 1504 1504 1505 1505 1506 1506 1507 1507
1501 1499 1500 1501 1505 1507 1504 1506 1491 1485 1483 1479 1478 1478 1478 1479 1480 1480 1481 1482 1484 1485 1486 1488 1489 1490 1491 1492 1493 1494 1495 1495 1495 1496 1497 1498 1498 1498 1498 1499 1499 1500 1500 1501 1501 1502 1502 1503 1503
1498 1500 1501 1504 1507 1509 1501 1504 1492 1487 1480 1476 1475 1476 1476 1477 1478 1478 1480 1481 1482 1483 1484 1484 1486 1487 1488 1489 1490 1491 1491 1491 1492 1492 1492 1493 1494 1494 1494 1495 1495 1495 1496 1496 1497 1498 1498 1499 1499
1499 1506 1513 1512 1515 1506 1497 1497 1489 1479 1475 1474 1473 1474 1474 1475 1475 1476 1477 1478 1479 1480 1481 1481 1483 1484 1485 1486 1487 1487 1487 1488 1488 1488 1488 1488 1489 1489 1489 1490 1491 1491 1492 1492 1493 1493 1494 1494 1495
1500 1503 1511 1512 1512 1505 1496 1495 1484 1476 1473 1472 1472 1472 1473 1474 1475 1475 1476 1476 1477 1477 1478 1479 1480 1480 1482 1482 1483 1483 1484 1484 1484 1484 1484 1484 1484 1484 1485 1485 1486 1487 1487 1488 1488 1488 1489 1490 1490
1499 1503 1502 1508 1509 1507 1497 1490 1481 1475 1473 1472 1472 1472 1472 1473 1474 1474 1474 1475 1475 1475 1476 1476 1477 1477 1478 1479 1479 1480 1480 1480 1480 1480 1480 1480 1480 1480 1480 1481 1481 1482 1482 1483 1483 1483 1484 1485 1485
1496 1498 1504 1507 1507 1502 1495 1490 1484 1478 1476 1474 1473 1472 1472 1472 1473 1473 1473 1473 1473 1474 1474 1474 1474 1474 1474 1475 1475 1475 1475 1475 1475 1476 1475 1475 1476 1476 1476 1476 1476 1477 1477 1478 1478 1478 1479 1480 1480
1497 1499 1500 1504 1506 1504 1498 1488 1476 1475 1474 1473 1472 1472 1472 1472 1472 1472 1472 1472 1472 1471 1471 1471 1471 1471 1471 1471 1471 1471 1471 1471 1471 1471 1471 1471 1471 1471 1471 1471 1471 1471 1472 1473 1473 1473 1474 1474 1475
1493 1494 1498 1503 1503 1504 1502 1489 1473 1473 1472 1472 1472 1472 1472 1472 1471 1471 1471 1470 1469 1469 1468 1468 1468 1467 1467 1467 1467 1467 1467 1466 1466 1466 1466 1466 1466 1466 1466 1466 1466 1466 1467 1467 1468 1468 1469 1469 1469